Tracking 32963 objects as of 21-Jan-2026
HD Live streaming from Space Station
objects crossing your sky now

ONEWEB-0633

Track ONEWEB-0633 now!
10-day predictions
ONEWEB-0633 is classified as:


NORAD ID: 56074
Int'l Code: 2023-043AE
Perigee: 1,208.0 km
Apogee: 1,209.8 km
Inclination: 87.9 °
Period: 109.5 minutes
Semi major axis: 7579 km
RCS: Unknown
Launch date: March 26, 2023
Source: United Kingdom (UK)
Launch site: SRIHARIKOTA (SRI)
Your satellite tracking list
Your tracking list is empty




NASA's NSSDC Master Catalog

Two Line Element Set (TLE):
1 56074U 23043AE  26020.76405044 -.00000140  00000-0 -40685-3 0  9997
2 56074  87.9009 288.6093 0001175  73.4963 286.6297 13.15549409137023
Source of the keplerian elements: AFSPC